{"data":{"norad_id":59745,"epoch":"2026-05-25T04:30:01.886112Z","epoch_age_seconds":49015,"freshness":"FRESH","line1":"1 59745U 24090R   26145.18752183 -.00011109  00000+0 -39427-3 0  9999","line2":"2 59745  43.0030 111.1179 0001433 268.9744  91.0943 15.27619306115142","mean_motion":15.27619306,"eccentricity":0.0001433,"inclination_deg":43.003,"raan_deg":111.1179,"arg_perigee_deg":268.9744,"mean_anomaly_deg":91.0943,"bstar":-0.00039427,"rev_number":11514,"period_min":94.264323208285,"perigee_km":481.94821115699,"apogee_km":483.91459336107,"semimajor_km":6861.068402259,"source":"CELESTRAK","updated_at":"2026-05-25T13:38:19.053599Z"}}